Location: Buisson
(44.2787°N, 4.9969°E)
Time: 06:31:00
(UTC+00:00)

Cosmos 1777 Rocket - Pass Details

Date: 18 April 2021
Orbit: 759 x 775 km, 74.0° (Epoch: 05 May)

Event Time Altitude Azimuth Distance (km) Brightness Sun altitude
Exits shadow 01:36:53 57° 338° (NNW) 899 4.4 -28.8°
Drops below altitude 10° 01:41:17 10° 16° (NNE) 2,301 7.3 -28.3°
Sets 01:43:41 0° 19° (NNE) 3,230 8.4 -28.1°
